Location: Lourdes
(43.1000°N, 0.0500°W)
Time: 01:45:26
(UTC+00:00)

Cosmos 773 Rocket - Pass Details

Date: 16 April 2021
Orbit: 745 x 777 km, 74.1° (Epoch: 10 May)

Event Time Altitude Azimuth Distance (km) Brightness Sun altitude
Rises 01:15:13 0° 344° (NNW) 3,255 7.9 -34.1°
Reaches altitude 10° 01:17:41 10° 349° (N) 2,328 7.1 -33.9°
Enters shadow 01:21:25 40° 19° (NNE) 1,132 5.2 -33.6°
